[Date Prev][Date Next][Thread Prev][Thread Next] - [Date Index][Thread Index][Author Index]

2 Line ISS Keps 1-11



ISS
1 25544U 98067A   03011.19268007  .00037501  00000-0  47891-3 0  5677
2 25544  51.6359  88.8710 0005276  23.5569  19.2052 15.58870991236512


----
Via the sarex mailing list at AMSAT.ORG courtesy of AMSAT-NA.
To unsubscribe, send "unsubscribe sarex" to Majordomo@amsat.org



AMSAT Top AMSAT Home